Previsão horária em Cepel

Hoje, 25 Julho, Domingo

Tempo Temperatura Precipitação Vento Pressão Humidade
00:00 +8°C° 0 mm 1 m/s 743 mmHg 90%
01:00 +8°C° 0 mm 1 m/s 743 mmHg 90%
02:00 +7°C° 0 mm 1 m/s 744 mmHg 90%
03:00 +6°C° 0 mm 1 m/s 744 mmHg 90%
04:00 +6°C° 0 mm 1 m/s 745 mmHg 90%
05:00 +7°C° 0 mm 1 m/s 745 mmHg 82%
06:00 +9°C° 0 mm 1 m/s 745 mmHg 74%
07:00 +10°C° 0 mm 2 m/s 746 mmHg 66%
08:00 +12°C° 0 mm 2 m/s 746 mmHg 61%
09:00 +14°C° 0 mm 2 m/s 746 mmHg 55%
10:00 +14°C° 0 mm 3 m/s 746 mmHg 50%
11:00 +14°C° 0 mm 3 m/s 746 mmHg 51%
12:00 +14°C° 0 mm 3 m/s 747 mmHg 51%
13:00 +16°C° 0 mm 3 m/s 747 mmHg 51%
14:00 +16°C° 0 mm 3 m/s 747 mmHg 52%
15:00 +16°C° 0 mm 3 m/s 747 mmHg 53%
16:00 +16°C° 0 mm 3 m/s 747 mmHg 53%
17:00 +15°C° 0 mm 2 m/s 747 mmHg 57%
18:00 +14°C° 0 mm 2 m/s 747 mmHg 61%
19:00 +14°C° 0 mm 2 m/s 748 mmHg 65%
20:00 +13°C° 0 mm 2 m/s 748 mmHg 67%
21:00 +13°C° 0 mm 1 m/s 748 mmHg 70%
22:00 +12°C° 0 mm 1 m/s 748 mmHg 72%
23:00 +12°C° 0 mm 1 m/s 748 mmHg 74%

Amanhã, 26 Julho, Segunda-feira

Tempo Temperatura Precipitação Vento Pressão Humidade
00:00 +11°C° 0 mm 1 m/s 748 mmHg 75%
01:00 +11°C° 0 mm 1 m/s 748 mmHg 77%
02:00 +11°C° 0 mm 1 m/s 748 mmHg 76%
03:00 +11°C° 0 mm 1 m/s 748 mmHg 75%
04:00 +11°C° 0 mm 1 m/s 748 mmHg 75%
05:00 +12°C° 0 mm 2 m/s 748 mmHg 72%
06:00 +13°C° 0 mm 2 m/s 748 mmHg 70%
07:00 +14°C° 0 mm 2 m/s 748 mmHg 67%
08:00 +14°C° 0.1 mm 2 m/s 748 mmHg 70%
09:00 +14°C° 0.1 mm 2 m/s 748 mmHg 74%
10:00 +14°C° 0.1 mm 2 m/s 748 mmHg 77%
11:00 +15°C° 0.1 mm 2 m/s 747 mmHg 72%
12:00 +16°C° 0.1 mm 3 m/s 747 mmHg 68%
13:00 +17°C° 0.1 mm 3 m/s 747 mmHg 63%
14:00 +18°C° 0.1 mm 3 m/s 747 mmHg 62%
15:00 +18°C° 0.1 mm 3 m/s 746 mmHg 62%
16:00 +18°C° 0.1 mm 3 m/s 746 mmHg 61%
17:00 +17°C° 0.4 mm 3 m/s 746 mmHg 70%
18:00 +16°C° 0.4 mm 2 m/s 746 mmHg 80%
19:00 +15°C° 0.4 mm 2 m/s 745 mmHg 89%
20:00 +14°C° 0.2 mm 1 m/s 745 mmHg 91%
21:00 +13°C° 0.2 mm 1 m/s 745 mmHg 93%
22:00 +12°C° 0.2 mm 1 m/s 745 mmHg 94%
23:00 +12°C° 0.5 mm 1 m/s 745 mmHg 96%

Depois de amanhã, 27 Julho, Terça-feira

Tempo Temperatura Precipitação Vento Pressão Humidade
00:00 +12°C° 0.5 mm 1 m/s 745 mmHg 97%
01:00 +12°C° 0.5 mm 1 m/s 744 mmHg 98%
02:00 +12°C° 1 mm 2 m/s 745 mmHg 98%
03:00 +10°C° 1 mm 2 m/s 745 mmHg 98%
04:00 +10°C° 1 mm 3 m/s 745 mmHg 98%
05:00 +10°C° 0 mm 3 m/s 745 mmHg 96%
06:00 +10°C° 0 mm 3 m/s 745 mmHg 94%
07:00 +10°C° 0 mm 3 m/s 745 mmHg 93%
08:00 +11°C° 0.1 mm 3 m/s 745 mmHg 84%
09:00 +12°C° 0.1 mm 3 m/s 745 mmHg 75%
10:00 +13°C° 0.1 mm 4 m/s 745 mmHg 67%
11:00 +13°C° 0.2 mm 3 m/s 745 mmHg 69%
12:00 +13°C° 0.2 mm 3 m/s 745 mmHg 71%
13:00 +13°C° 0.2 mm 3 m/s 745 mmHg 73%
14:00 +13°C° 0.1 mm 3 m/s 745 mmHg 66%
15:00 +13°C° 0.1 mm 3 m/s 744 mmHg 59%
16:00 +14°C° 0.1 mm 3 m/s 744 mmHg 53%
17:00 +13°C° 0 mm 3 m/s 744 mmHg 57%
18:00 +12°C° 0 mm 3 m/s 744 mmHg 61%
19:00 +13°C° 0 mm 2 m/s 744 mmHg 65%
20:00 +12°C° 0 mm 2 m/s 744 mmHg 68%
21:00 +10°C° 0 mm 2 m/s 744 mmHg 72%
22:00 +9°C° 0 mm 2 m/s 744 mmHg 75%
23:00 +9°C° 0 mm 2 m/s 744 mmHg 77%

28 Julho, Quarta-feira

Tempo Temperatura Precipitação Vento Pressão Humidade
00:00 +9°C° 0 mm 2 m/s 744 mmHg 78%
01:00 +9°C° 0 mm 2 m/s 744 mmHg 79%
02:00 +9°C° 0 mm 2 m/s 744 mmHg 80%
03:00 +9°C° 0 mm 3 m/s 743 mmHg 81%
04:00 +8°C° 0 mm 3 m/s 743 mmHg 82%
05:00 +9°C° 0 mm 3 m/s 743 mmHg 77%
06:00 +10°C° 0 mm 4 m/s 743 mmHg 73%
07:00 +10°C° 0 mm 4 m/s 743 mmHg 69%
08:00 +11°C° 0 mm 4 m/s 743 mmHg 64%
09:00 +12°C° 0 mm 4 m/s 743 mmHg 59%
10:00 +13°C° 0 mm 4 m/s 743 mmHg 54%
11:00 +14°C° 0 mm 4 m/s 743 mmHg 53%
12:00 +14°C° 0 mm 3 m/s 742 mmHg 53%
13:00 +16°C° 0 mm 2 m/s 742 mmHg 52%
14:00 +16°C° 0 mm 2 m/s 742 mmHg 54%
15:00 +16°C° 0 mm 2 m/s 742 mmHg 56%
16:00 +16°C° 0 mm 2 m/s 742 mmHg 57%
17:00 +15°C° 0.1 mm 2 m/s 741 mmHg 64%
18:00 +14°C° 0.1 mm 2 m/s 741 mmHg 71%
19:00 +13°C° 0.1 mm 2 m/s 741 mmHg 78%
20:00 +12°C° 0.3 mm 2 m/s 741 mmHg 85%
21:00 +12°C° 0.3 mm 2 m/s 741 mmHg 92%
22:00 +11°C° 0.3 mm 1 m/s 740 mmHg 98%
23:00 +11°C° 0.4 mm 1 m/s 740 mmHg 98%

29 Julho, Quinta-feira

Tempo Temperatura Precipitação Vento Pressão Humidade
00:00 +11°C° 0.4 mm 1 m/s 740 mmHg 99%
01:00 +11°C° 0.4 mm 1 m/s 739 mmHg 99%
02:00 +11°C° 0 mm 1 m/s 739 mmHg 99%
03:00 +11°C° 0 mm 1 m/s 739 mmHg 99%
04:00 +11°C° 0 mm 1 m/s 739 mmHg 99%
05:00 +11°C° 0 mm 1 m/s 739 mmHg 98%
06:00 +11°C° 0 mm 1 m/s 739 mmHg 97%
07:00 +12°C° 0 mm 1 m/s 739 mmHg 96%
08:00 +12°C° 0.1 mm 1 m/s 739 mmHg 92%
09:00 +13°C° 0.1 mm 1 m/s 739 mmHg 87%
10:00 +14°C° 0.1 mm 1 m/s 739 mmHg 82%
11:00 +16°C° 0.1 mm 2 m/s 739 mmHg 74%
12:00 +17°C° 0.1 mm 2 m/s 739 mmHg 67%
13:00 +18°C° 0.1 mm 3 m/s 739 mmHg 59%
14:00 +18°C° 0 mm 2 m/s 739 mmHg 60%
15:00 +18°C° 0 mm 2 m/s 739 mmHg 61%
16:00 +18°C° 0 mm 2 m/s 739 mmHg 61%
17:00 +18°C° 0 mm 1 m/s 739 mmHg 65%
18:00 +18°C° 0 mm 1 m/s 739 mmHg 68%
19:00 +15°C° 0 mm 0 m/s 739 mmHg 72%
20:00 +15°C° 0 mm 1 m/s 739 mmHg 75%
21:00 +14°C° 0 mm 1 m/s 739 mmHg 78%
22:00 +13°C° 0 mm 2 m/s 739 mmHg 81%
23:00 +12°C° 0 mm 2 m/s 739 mmHg 85%

30 Julho, Sexta-feira

Tempo Temperatura Precipitação Vento Pressão Humidade
00:00 +12°C° 0 mm 2 m/s 739 mmHg 89%
01:00 +10°C° 0 mm 2 m/s 739 mmHg 92%
02:00 +12°C° 0 mm 2 m/s 738 mmHg 94%
03:00 +12°C° 0 mm 2 m/s 738 mmHg 96%
04:00 +12°C° 0 mm 2 m/s 738 mmHg 98%
05:00 +13°C° 0.1 mm 2 m/s 738 mmHg 95%
06:00 +14°C° 0.1 mm 3 m/s 738 mmHg 92%
07:00 +17°C° 0.1 mm 3 m/s 738 mmHg 90%
08:00 +18°C° 0.2 mm 3 m/s 738 mmHg 85%
09:00 +20°C° 0.2 mm 4 m/s 738 mmHg 80%
10:00 +21°C° 0.2 mm 4 m/s 738 mmHg 75%
11:00 +22°C° 0.4 mm 4 m/s 737 mmHg 77%
12:00 +22°C° 0.4 mm 3 m/s 737 mmHg 79%
13:00 +24°C° 0.4 mm 3 m/s 737 mmHg 80%
14:00 +22°C° 0.6 mm 3 m/s 737 mmHg 81%
15:00 +22°C° 0.6 mm 3 m/s 737 mmHg 82%
16:00 +22°C° 0.6 mm 4 m/s 737 mmHg 83%
17:00 +21°C° 0.8 mm 3 m/s 737 mmHg 87%
18:00 +20°C° 0.8 mm 3 m/s 737 mmHg 90%
19:00 +19°C° 0.8 mm 3 m/s 737 mmHg 93%
20:00 +19°C° 0.8 mm 2 m/s 737 mmHg 95%
21:00 +18°C° 0.8 mm 2 m/s 737 mmHg 97%
22:00 +17°C° 0.8 mm 2 m/s 737 mmHg 98%
23:00 +17°C° 0.9 mm 2 m/s 737 mmHg 98%
Mostrar mais

Necessitamos do seu Consentimento

A Meteoprog e os seus Fornecedores de Serviços podem armazenar e aceder a dados pessoais como cookies, identificadores do dispositivo ou outras tecnologias semelhantes existentes no seu dispositivo e processar estes dados para personalizar conteúdos e anúncios, assim como funcionalidades nas redes sociais e análise de tráfego.

  • Armazenar e/ou aceder a informações no seu dispositivo

    Os cookies, identificadores do dispositivo ou outras informações podem ser armazenados ou acedidos no seu dispositivo, para os fins acima indicados.

  • Anúncios e conteúdos personalizados, medição de anúncios e conteúdos, dados sobre o público-alvo e desenvolvimento de produtos

    Os anúncios e os conteúdos podem ser personalizados com base num perfil. Podem ser adicionados dados adicionais para uma maior personalização dos anúncios e dos conteúdos. A eficácia dos anúncios e dos conteúdos pode ser medida. Podem ser obtidas informações sobre o público que visualizou os anúncios e os conteúdos. Estes dados podem ser usados para desenvolver ou melhorar sistemas, softwares ou a experiência do utilizador.

Ao clicar em "Eu concordo”, permitirá o uso de cookies, identificadores do dispositivo e web beacons mencionados ou outras tecnologias semelhantes. As configurações do navegador do seu dispositivo podem ser alteradas.

Para certos fins, podem ser invocados interesses legítimos ao invés de consentimento. Pode ler mais informação sobre este assunto na nossa Política de Privacidade e Cookies.